Tracking 29892 objects as of 21-Nov-2024
HD Live streaming from Space Station
objects crossing your sky now

TITAN 3C TRANSTAGE R/B

Track TITAN 3C TRANSTAGE R/B now!


NORAD ID: 7324
Int'l Code: 1974-039C
Perigee: 35,528.6 km
Apogee: 35,804.9 km
Inclination: 4.2 °
Period: 1,429.6 minutes
Semi major axis: 42037 km
RCS: 1.7825 m2 (large)
Launch date: May 30, 1974
Source: United States (US)
Launch site: AIR FORCE EASTERN TEST RANGE (AFETR)

Note: This is a ROCKET BODY
Your satellite tracking list
Your tracking list is empty




NASA's NSSDC Master Catalog

Two Line Element Set (TLE):
1  7324U 74039C   24326.18372847 -.00000242  00000-0  00000+0 0  9994
2  7324   4.2188 271.7035 0032857  62.4281  66.3969  1.00726571113849
Source of the keplerian elements: AFSPC